RYR97MQ EBCI-EGCC

Flight info

Callsign RYR97MQ
Flight time 1h 0m
Altitude 34000
Route CIV UY50 LUMEN L610 LAM UN57 WELIN T420 ELVOS
Aircraft B738/M-SDE2E3FGHIRWXY/LB1

Departure

Time 2026-05-04 14:50
Airport Brussels South Charleroi Airport (EBCI)

Arrival

Time 2026-05-04 15:50
Airport Manchester Airport (EGCC)
Time Latitude Longitude Altitude Speed Heading
2026-05-04 14:24 50.46871 4.47097 584 ft 0 kts 335°
2026-05-04 14:36 50.46873 4.47095 605 ft 0 kts 335°
2026-05-04 14:37 50.46866 4.47100 611 ft 4 kts 335°
2026-05-04 14:37 50.46843 4.47119 584 ft 4 kts 318°
2026-05-04 14:37 50.46839 4.47124 572 ft 0 kts 310°
2026-05-04 14:39 50.46839 4.47123 584 ft 0 kts 306°
2026-05-04 14:39 50.46814 4.47108 585 ft 0 kts 23°
2026-05-04 14:40 50.46813 4.47110 585 ft 0 kts 65°
2026-05-04 14:41 50.46817 4.47124 585 ft 5 kts 65°
2026-05-04 14:41 50.46882 4.47350 584 ft 12 kts 66°
2026-05-04 14:42 50.46924 4.47592 586 ft 12 kts 136°
2026-05-04 14:42 50.46861 4.47643 590 ft 7 kts 155°
2026-05-04 14:42 50.46845 4.47654 591 ft 0 kts 154°
2026-05-04 14:44 50.46839 4.47659 591 ft 3 kts 154°
2026-05-04 14:44 50.46805 4.47684 593 ft 6 kts 155°
2026-05-04 14:44 50.46765 4.47714 594 ft 7 kts 154°
2026-05-04 14:44 50.46731 4.47717 593 ft 2 kts 184°
2026-05-04 14:45 50.46699 4.47705 592 ft 8 kts 212°
2026-05-04 14:45 50.46661 4.47612 592 ft 12 kts 245°
2026-05-04 14:45 50.46628 4.47500 595 ft 9 kts 245°
2026-05-04 14:45 50.46615 4.47456 596 ft 0 kts 245°
2026-05-04 14:49 50.46612 4.47445 596 ft 5 kts 245°
2026-05-04 14:49 50.46501 4.47067 596 ft 83 kts 245°
2026-05-04 14:49 50.46146 4.45848 595 ft 163 kts 245°
2026-05-04 14:50 50.45642 4.44067 1269 ft 188 kts 246°
2026-05-04 14:50 50.45096 4.42103 2322 ft 203 kts 246°
2026-05-04 14:50 50.44499 4.40034 3303 ft 212 kts 245°
2026-05-04 14:50 50.43858 4.37892 3766 ft 220 kts 250°
2026-05-04 14:51 50.43287 4.35620 4069 ft 231 kts 249°
2026-05-04 14:51 50.43051 4.33184 4901 ft 228 kts 282°
2026-05-04 14:51 50.43600 4.30846 5754 ft 230 kts 295°
2026-05-04 14:51 50.44270 4.28554 6631 ft 232 kts 295°
2026-05-04 14:52 50.44953 4.26241 7408 ft 236 kts 295°
2026-05-04 14:52 50.45646 4.23894 7806 ft 237 kts 295°
2026-05-04 14:52 50.46344 4.21522 8016 ft 242 kts 295°
2026-05-04 14:52 50.47054 4.19118 8647 ft 244 kts 298°
2026-05-04 14:53 50.47962 4.16891 9540 ft 242 kts 303°
2026-05-04 14:53 50.48830 4.14613 10268 ft 245 kts 300°
2026-05-04 14:53 50.49662 4.12262 10950 ft 248 kts 299°
2026-05-04 14:53 50.50500 4.09869 11646 ft 251 kts 299°
2026-05-04 14:54 50.51349 4.07450 12336 ft 255 kts 299°
2026-05-04 14:54 50.52212 4.05000 13031 ft 258 kts 300°
2026-05-04 14:54 50.53087 4.02521 13733 ft 261 kts 300°
2026-05-04 14:54 50.53975 4.00013 14359 ft 264 kts 299°
2026-05-04 14:55 50.54875 3.97474 14990 ft 267 kts 299°
2026-05-04 14:55 50.55781 3.94917 15651 ft 269 kts 299°
2026-05-04 14:55 50.56697 3.92337 16296 ft 271 kts 298°
2026-05-04 14:55 50.57621 3.89733 16924 ft 274 kts 298°
2026-05-04 14:56 50.58555 3.87097 17553 ft 277 kts 298°
2026-05-04 14:56 50.59502 3.84425 18144 ft 282 kts 298°
2026-05-04 14:56 50.60462 3.81717 18712 ft 284 kts 298°
2026-05-04 14:56 50.61425 3.78996 19304 ft 285 kts 297°
2026-05-04 14:57 50.62393 3.76259 19882 ft 287 kts 297°
2026-05-04 14:57 50.63366 3.73505 20460 ft 289 kts 297°
2026-05-04 14:57 50.64342 3.70742 21079 ft 288 kts 298°
2026-05-04 14:57 50.65314 3.67987 21691 ft 288 kts 297°
2026-05-04 14:58 50.66293 3.65208 22213 ft 292 kts 297°
2026-05-04 14:58 50.67281 3.62399 22753 ft 294 kts 297°
2026-05-04 14:58 50.68275 3.59569 23305 ft 296 kts 296°
2026-05-04 14:58 50.69275 3.56720 23796 ft 298 kts 296°
2026-05-04 14:59 50.70273 3.53877 24206 ft 301 kts 296°
2026-05-04 14:59 50.71293 3.50962 24630 ft 304 kts 296°
2026-05-04 14:59 50.73360 3.45051 25472 ft 310 kts 295°
2026-05-04 15:00 50.74405 3.42057 25885 ft 313 kts 295°
2026-05-04 15:00 50.75460 3.39028 26306 ft 315 kts 295°
2026-05-04 15:00 50.76525 3.35971 26702 ft 318 kts 295°
2026-05-04 15:01 50.78666 3.29814 27476 ft 325 kts 294°
2026-05-04 15:01 50.79759 3.26665 27839 ft 329 kts 294°
2026-05-04 15:01 50.80871 3.23454 28137 ft 335 kts 294°
2026-05-04 15:01 50.81993 3.20211 28535 ft 337 kts 294°
2026-05-04 15:02 50.83124 3.16942 28913 ft 340 kts 294°
2026-05-04 15:02 50.84264 3.13640 29284 ft 343 kts 294°
2026-05-04 15:02 50.85425 3.10269 29387 ft 355 kts 294°
2026-05-04 15:02 50.86624 3.06778 29489 ft 366 kts 294°
2026-05-04 15:03 50.87856 3.03186 29582 ft 377 kts 294°
2026-05-04 15:03 50.89108 2.99535 29671 ft 387 kts 294°
2026-05-04 15:03 50.90412 2.95729 29702 ft 399 kts 294°
2026-05-04 15:03 50.91755 2.91804 29762 ft 409 kts 294°
2026-05-04 15:04 50.94531 2.83679 29916 ft 428 kts 294°
2026-05-04 15:04 50.97426 2.75187 30070 ft 445 kts 295°
2026-05-04 15:05 51.00392 2.66451 30315 ft 457 kts 295°
2026-05-04 15:05 51.01919 2.61946 30624 ft 457 kts 295°
2026-05-04 15:05 51.03404 2.57558 30974 ft 456 kts 294°
2026-05-04 15:06 51.04905 2.53111 31376 ft 454 kts 294°
2026-05-04 15:06 51.06396 2.48689 31780 ft 452 kts 294°
2026-05-04 15:06 51.07876 2.44285 32155 ft 451 kts 294°
2026-05-04 15:07 51.10814 2.35519 32848 ft 449 kts 294°
2026-05-04 15:07 51.12279 2.31135 33257 ft 447 kts 294°
2026-05-04 15:07 51.13739 2.26760 33648 ft 445 kts 293°
2026-05-04 15:07 51.15194 2.22391 33970 ft 445 kts 293°
2026-05-04 15:08 51.16642 2.18035 34225 ft 445 kts 293°
2026-05-04 15:08 51.18070 2.13732 34454 ft 445 kts 294°
2026-05-04 15:08 51.19514 2.09372 34695 ft 445 kts 294°
2026-05-04 15:08 51.20956 2.05011 34948 ft 444 kts 294°
2026-05-04 15:09 51.22399 2.00642 35168 ft 444 kts 294°
2026-05-04 15:09 51.23838 1.96273 35399 ft 444 kts 294°
2026-05-04 15:09 51.25278 1.91895 35631 ft 444 kts 294°
2026-05-04 15:10 51.28157 1.83123 36029 ft 446 kts 294°
2026-05-04 15:10 51.29593 1.78734 36240 ft 446 kts 294°
2026-05-04 15:10 51.32444 1.69998 36710 ft 445 kts 294°
2026-05-04 15:11 51.33879 1.65592 36897 ft 445 kts 294°
2026-05-04 15:11 51.35311 1.61185 37121 ft 445 kts 294°
2026-05-04 15:11 51.36719 1.56845 37311 ft 445 kts 294°
2026-05-04 15:11 51.38142 1.52450 37499 ft 445 kts 294°
2026-05-04 15:12 51.39577 1.48008 37682 ft 445 kts 294°
2026-05-04 15:12 51.41000 1.43599 37873 ft 445 kts 295°
2026-05-04 15:12 51.42409 1.39225 37989 ft 447 kts 295°
2026-05-04 15:13 51.45274 1.30303 38002 ft 450 kts 295°
2026-05-04 15:13 51.48131 1.21376 37993 ft 448 kts 295°
2026-05-04 15:14 51.50944 1.12557 37994 ft 445 kts 295°
2026-05-04 15:14 51.53755 1.03714 37999 ft 444 kts 294°
2026-05-04 15:15 51.56270 0.94701 37998 ft 439 kts 283°
2026-05-04 15:15 51.57379 0.85091 38028 ft 437 kts 277°
2026-05-04 15:16 51.58837 0.70607 38024 ft 439 kts 277°
2026-05-04 15:17 51.60451 0.56082 38028 ft 442 kts 278°
2026-05-04 15:17 51.61486 0.46281 37729 ft 448 kts 277°
2026-05-04 15:17 51.61974 0.41339 37437 ft 444 kts 277°
2026-05-04 15:18 51.62455 0.36514 37030 ft 438 kts 277°
2026-05-04 15:18 51.62941 0.31687 36655 ft 433 kts 277°
2026-05-04 15:18 51.63423 0.26925 36267 ft 429 kts 277°
2026-05-04 15:19 51.64659 0.17633 35492 ft 426 kts 290°
2026-05-04 15:19 51.65997 0.13413 35132 ft 425 kts 300°
2026-05-04 15:19 51.69893 0.06208 34360 ft 424 kts 312°
2026-05-04 15:20 51.71963 0.02881 33981 ft 421 kts 312°
2026-05-04 15:20 51.74044 -0.00455 33559 ft 418 kts 312°
2026-05-04 15:20 51.76097 -0.03769 33177 ft 415 kts 312°
2026-05-04 15:20 51.78101 -0.07032 32818 ft 411 kts 311°
2026-05-04 15:21 51.80105 -0.10320 32428 ft 407 kts 311°
2026-05-04 15:21 51.81419 -0.12486 32213 ft 404 kts 311°
2026-05-04 15:21 51.85942 -0.19978 31360 ft 396 kts 311°
2026-05-04 15:22 51.87861 -0.23167 31016 ft 393 kts 311°
2026-05-04 15:22 51.89145 -0.25303 30783 ft 391 kts 311°
2026-05-04 15:22 51.92885 -0.31535 30102 ft 385 kts 310°
2026-05-04 15:23 51.94741 -0.34633 29710 ft 382 kts 310°
2026-05-04 15:23 51.96587 -0.37719 29368 ft 377 kts 310°
2026-05-04 15:23 51.98386 -0.40729 29011 ft 373 kts 310°
2026-05-04 15:23 52.00186 -0.43744 28664 ft 369 kts 310°
2026-05-04 15:24 52.03727 -0.49688 27961 ft 363 kts 310°
2026-05-04 15:24 52.07206 -0.55543 27289 ft 356 kts 311°
2026-05-04 15:25 52.08893 -0.58386 26966 ft 353 kts 311°
2026-05-04 15:25 52.10597 -0.61263 26622 ft 350 kts 311°
2026-05-04 15:25 52.12283 -0.64112 26288 ft 347 kts 311°
2026-05-04 15:26 52.15612 -0.69747 25639 ft 342 kts 311°
2026-05-04 15:26 52.17255 -0.72532 25306 ft 340 kts 311°
2026-05-04 15:26 52.20498 -0.78039 24669 ft 336 kts 311°
2026-05-04 15:27 52.22112 -0.80786 24344 ft 334 kts 311°
2026-05-04 15:27 52.25464 -0.86033 23714 ft 334 kts 323°
2026-05-04 15:28 52.29384 -0.89947 23198 ft 330 kts 327°
2026-05-04 15:28 52.31352 -0.91855 22941 ft 326 kts 327°
2026-05-04 15:28 52.35232 -0.95662 22314 ft 324 kts 327°
2026-05-04 15:29 52.37160 -0.97572 21991 ft 324 kts 327°
2026-05-04 15:30 52.45152 -1.05544 20944 ft 342 kts 327°
2026-05-04 15:30 52.51163 -1.11584 20170 ft 335 kts 327°
2026-05-04 15:31 52.55104 -1.15585 19664 ft 331 kts 327°
2026-05-04 15:31 52.57114 -1.17453 19416 ft 330 kts 332°
2026-05-04 15:32 52.63373 -1.22031 18724 ft 326 kts 335°
2026-05-04 15:32 52.67492 -1.24989 18102 ft 322 kts 335°
2026-05-04 15:33 52.71573 -1.27969 17440 ft 318 kts 335°
2026-05-04 15:34 52.77585 -1.32407 16505 ft 313 kts 334°
2026-05-04 15:34 52.79585 -1.33892 16058 ft 316 kts 334°
2026-05-04 15:34 52.83599 -1.36875 15361 ft 314 kts 334°
2026-05-04 15:35 52.87546 -1.39815 14744 ft 310 kts 334°
2026-05-04 15:35 52.89507 -1.41279 14434 ft 309 kts 334°
2026-05-04 15:35 52.91462 -1.42740 14127 ft 307 kts 334°
2026-05-04 15:36 52.95344 -1.45644 13485 ft 304 kts 334°
2026-05-04 15:36 52.97247 -1.47070 13163 ft 302 kts 334°
2026-05-04 15:36 52.99159 -1.48505 12839 ft 300 kts 334°
2026-05-04 15:37 53.01056 -1.49929 12555 ft 297 kts 334°
2026-05-04 15:37 53.02942 -1.51346 12260 ft 295 kts 334°
2026-05-04 15:37 53.04819 -1.52758 11913 ft 294 kts 334°
2026-05-04 15:37 53.06659 -1.54144 11597 ft 293 kts 334°
2026-05-04 15:38 53.08523 -1.55549 11295 ft 292 kts 334°
2026-05-04 15:38 53.10370 -1.56943 10988 ft 290 kts 334°
2026-05-04 15:38 53.12207 -1.58330 10690 ft 289 kts 334°
2026-05-04 15:38 53.14013 -1.59695 10390 ft 287 kts 334°
2026-05-04 15:39 53.15834 -1.61073 10090 ft 286 kts 334°
2026-05-04 15:39 53.17650 -1.62449 9766 ft 285 kts 334°
2026-05-04 15:39 53.21231 -1.65164 9156 ft 282 kts 334°
2026-05-04 15:40 53.23017 -1.66520 8848 ft 280 kts 334°
2026-05-04 15:40 53.24791 -1.67869 8541 ft 279 kts 335°
2026-05-04 15:40 53.26558 -1.69213 8235 ft 277 kts 334°
2026-05-04 15:40 53.28297 -1.70537 7923 ft 276 kts 334°
2026-05-04 15:41 53.30044 -1.71869 7607 ft 275 kts 334°
2026-05-04 15:41 53.31787 -1.73199 7309 ft 274 kts 334°
2026-05-04 15:41 53.33519 -1.74521 7058 ft 273 kts 334°
2026-05-04 15:41 53.35231 -1.75830 6757 ft 272 kts 334°
2026-05-04 15:42 53.36954 -1.77147 6478 ft 271 kts 334°
2026-05-04 15:42 53.38664 -1.78457 6175 ft 270 kts 334°
2026-05-04 15:42 53.40361 -1.79759 5861 ft 269 kts 335°
2026-05-04 15:42 53.42058 -1.81060 5570 ft 267 kts 335°
2026-05-04 15:43 53.43749 -1.82354 5301 ft 265 kts 335°
2026-05-04 15:43 53.45429 -1.83648 4993 ft 265 kts 335°
2026-05-04 15:43 53.47102 -1.84934 4728 ft 263 kts 335°
2026-05-04 15:43 53.48744 -1.86198 4440 ft 262 kts 334°
2026-05-04 15:44 53.50198 -1.87928 4295 ft 250 kts 309°
2026-05-04 15:44 53.50919 -1.90473 4085 ft 239 kts 279°
2026-05-04 15:44 53.51034 -1.93235 3703 ft 237 kts 271°
2026-05-04 15:44 53.51054 -1.96000 3330 ft 236 kts 270°
2026-05-04 15:45 53.51066 -1.98711 3020 ft 232 kts 270°
2026-05-04 15:45 53.50974 -2.01381 2980 ft 228 kts 254°
2026-05-04 15:45 53.50159 -2.03649 2996 ft 233 kts 221°
2026-05-04 15:45 53.48814 -2.05145 2996 ft 234 kts 217°
2026-05-04 15:46 53.47587 -2.06878 2976 ft 226 kts 220°
2026-05-04 15:46 53.46290 -2.08269 2984 ft 215 kts 211°
2026-05-04 15:46 53.45087 -2.09661 2829 ft 207 kts 220°
2026-05-04 15:46 53.44009 -2.11193 2566 ft 202 kts 221°
2026-05-04 15:47 53.42978 -2.12751 2294 ft 197 kts 224°
2026-05-04 15:47 53.42009 -2.14348 2026 ft 193 kts 226°
2026-05-04 15:47 53.41104 -2.15963 1785 ft 186 kts 229°
2026-05-04 15:47 53.40276 -2.17539 1516 ft 174 kts 230°
2026-05-04 15:48 53.39515 -2.19026 1314 ft 167 kts 229°
2026-05-04 15:48 53.38768 -2.20486 1104 ft 162 kts 231°
2026-05-04 15:48 53.37410 -2.23289 717 ft 147 kts 231°
2026-05-04 15:49 53.36776 -2.24602 515 ft 141 kts 231°
2026-05-04 15:49 53.36150 -2.25892 312 ft 148 kts 231°
2026-05-04 15:49 53.35520 -2.27195 249 ft 129 kts 231°
2026-05-04 15:49 53.35055 -2.28155 232 ft 71 kts 231°
2026-05-04 15:50 53.34960 -2.28483 227 ft 21 kts 255°
2026-05-04 15:50 53.34963 -2.28733 221 ft 23 kts 315°
2026-05-04 15:50 53.35059 -2.28660 223 ft 17 kts 48°
2026-05-04 15:50 53.35131 -2.28512 227 ft 16 kts 52°
2026-05-04 15:51 53.35199 -2.28368 231 ft 15 kts 51°
2026-05-04 15:51 53.35259 -2.28254 236 ft 10 kts 33°
2026-05-04 15:51 53.35321 -2.28199 237 ft 10 kts 24°
2026-05-04 15:51 53.35385 -2.28165 239 ft 10 kts 13°
2026-05-04 15:52 53.35450 -2.28149 238 ft 10 kts 12°
2026-05-04 15:52 53.35515 -2.28102 236 ft 11 kts 35°
2026-05-04 15:52 53.35568 -2.28017 237 ft 11 kts 50°
2026-05-04 15:52 53.35606 -2.27931 238 ft 4 kts 81°
2026-05-04 15:53 53.35606 -2.27930 239 ft 0 kts 83°
2026-05-04 15:53 53.35605 -2.27925 238 ft 2 kts 101°
2026-05-04 15:53 53.35568 -2.27908 237 ft 10 kts 182°
2026-05-04 15:53 53.35492 -2.27914 246 ft 13 kts 168°
2026-05-04 15:54 53.35466 -2.27767 247 ft 13 kts 60°
2026-05-04 15:54 53.35503 -2.27696 249 ft 6 kts 50°
2026-05-04 15:54 53.35529 -2.27643 251 ft 6 kts 50°
2026-05-04 15:54 53.35555 -2.27591 252 ft 6 kts 51°
2026-05-04 15:55 53.35579 -2.27539 253 ft 5 kts 51°
2026-05-04 15:55 53.35603 -2.27490 255 ft 5 kts 51°
2026-05-04 15:55 53.35636 -2.27422 249 ft 12 kts 51°
2026-05-04 15:55 53.35692 -2.27308 254 ft 13 kts 50°
2026-05-04 15:56 53.35745 -2.27194 254 ft 12 kts 51°
2026-05-04 15:56 53.35798 -2.27086 254 ft 12 kts 51°
2026-05-04 15:56 53.35840 -2.26968 255 ft 12 kts 60°
2026-05-04 15:56 53.35889 -2.26863 255 ft 11 kts 51°
2026-05-04 15:57 53.35931 -2.26754 255 ft 11 kts 55°
2026-05-04 15:57 53.35994 -2.26747 254 ft 10 kts 335°
2026-05-04 15:57 53.36051 -2.26696 254 ft 10 kts 53°
2026-05-04 15:57 53.36108 -2.26652 254 ft 10 kts 344°
2026-05-04 15:58 53.36138 -2.26679 254 ft 2 kts 326°
2026-05-04 15:58 53.36144 -2.26685 254 ft 0 kts 327°